When you browse on this site, cookies collect data to enhance your experience and personalize the content and advertising you see.
Visit our Privacy Policy to learn more. By continuing to use the site, you agree to this use of cookies and data.
EN

Hourly Weather Godziembow

Today, 26 September, Saturday

Time Temperature Precipitation Wind Pressure Humidity
00:00 +19°C° 0 mm 5 mps 734 mmHg 74%
01:00 +19°C° 0 mm 5 mps 734 mmHg 75%
02:00 +19°C° 0 mm 3 mps 733 mmHg 73%
03:00 +18°C° 0 mm 4 mps 733 mmHg 74%
04:00 +18°C° 0 mm 4 mps 733 mmHg 74%
05:00 +17°C° 0 mm 4 mps 732 mmHg 75%
06:00 +16°C° 0 mm 5 mps 732 mmHg 74%
07:00 +17°C° 0 mm 5 mps 732 mmHg 73%
08:00 +17°C° 0 mm 6 mps 732 mmHg 73%
09:00 +18°C° 0 mm 7 mps 732 mmHg 71%
10:00 +20°C° 0 mm 7 mps 732 mmHg 69%
11:00 +21°C° 0 mm 8 mps 732 mmHg 67%
12:00 +21°C° 0.1 mm 7 mps 732 mmHg 67%
13:00 +22°C° 0.1 mm 6 mps 732 mmHg 67%
14:00 +22°C° 0 mm 6 mps 732 mmHg 69%
15:00 +21°C° 2.1 mm 6 mps 732 mmHg 76%
16:00 +20°C° 2.1 mm 5 mps 732 mmHg 83%
17:00 +19°C° 2.1 mm 4 mps 732 mmHg 89%
18:00 +18°C° 2.5 mm 3 mps 732 mmHg 91%
19:00 +18°C° 2.5 mm 3 mps 732 mmHg 93%
20:00 +17°C° 2.5 mm 2 mps 733 mmHg 94%
21:00 +17°C° 1.6 mm 2 mps 733 mmHg 94%
22:00 +16°C° 1.6 mm 2 mps 733 mmHg 94%
23:00 +15°C° 1.6 mm 2 mps 733 mmHg 93%

Tomorrow, 27 September, Sunday

Time Temperature Precipitation Wind Pressure Humidity
00:00 +14°C° 0.8 mm 3 mps 733 mmHg 93%
01:00 +14°C° 0.8 mm 3 mps 732 mmHg 94%
02:00 +13°C° 0.8 mm 4 mps 732 mmHg 94%
03:00 +13°C° 3.7 mm 4 mps 732 mmHg 94%
04:00 +13°C° 3.7 mm 5 mps 732 mmHg 94%
05:00 +13°C° 3.7 mm 5 mps 731 mmHg 94%
06:00 +13°C° 1.9 mm 6 mps 732 mmHg 93%
07:00 +11°C° 1.9 mm 6 mps 732 mmHg 93%
08:00 +10°C° 1.9 mm 7 mps 732 mmHg 93%
09:00 +10°C° 2.3 mm 7 mps 733 mmHg 92%
10:00 +10°C° 2.3 mm 7 mps 733 mmHg 91%
11:00 +10°C° 2.3 mm 8 mps 734 mmHg 91%
12:00 +9°C° 0.8 mm 8 mps 735 mmHg 90%
13:00 +9°C° 0.8 mm 7 mps 736 mmHg 89%
14:00 +9°C° 0.8 mm 7 mps 737 mmHg 88%
15:00 +9°C° 0.4 mm 6 mps 738 mmHg 86%
16:00 +10°C° 0.4 mm 5 mps 739 mmHg 84%
17:00 +11°C° 0.4 mm 4 mps 740 mmHg 82%
18:00 +11°C° 0 mm 4 mps 740 mmHg 83%
19:00 +10°C° 0 mm 3 mps 741 mmHg 84%
20:00 +10°C° 0 mm 3 mps 741 mmHg 85%
21:00 +9°C° 0 mm 3 mps 742 mmHg 86%
22:00 +8°C° 0 mm 4 mps 743 mmHg 86%
23:00 +8°C° 0 mm 4 mps 744 mmHg 87%

Day after tomorrow, 28 September, Monday

Time Temperature Precipitation Wind Pressure Humidity
00:00 +9°C° 0 mm 3 mps 744 mmHg 86%
01:00 +8°C° 0 mm 3 mps 744 mmHg 86%
02:00 +8°C° 0 mm 3 mps 745 mmHg 85%
03:00 +8°C° 0 mm 3 mps 745 mmHg 85%
04:00 +8°C° 0 mm 3 mps 745 mmHg 85%
05:00 +8°C° 0 mm 3 mps 746 mmHg 85%
06:00 +8°C° 0 mm 3 mps 746 mmHg 83%
07:00 +9°C° 0 mm 3 mps 746 mmHg 81%
08:00 +8°C° 0 mm 4 mps 746 mmHg 79%
09:00 +11°C° 0 mm 4 mps 746 mmHg 73%
10:00 +13°C° 0 mm 4 mps 746 mmHg 66%
11:00 +15°C° 0 mm 4 mps 746 mmHg 60%
12:00 +17°C° 0 mm 4 mps 746 mmHg 59%
13:00 +17°C° 0 mm 5 mps 745 mmHg 58%
14:00 +19°C° 0 mm 5 mps 745 mmHg 58%
15:00 +18°C° 0 mm 4 mps 745 mmHg 62%
16:00 +18°C° 0 mm 4 mps 745 mmHg 66%
17:00 +18°C° 0 mm 3 mps 745 mmHg 70%
18:00 +17°C° 0 mm 3 mps 744 mmHg 73%
19:00 +16°C° 0 mm 3 mps 744 mmHg 76%
20:00 +14°C° 0 mm 3 mps 744 mmHg 79%
21:00 +14°C° 0 mm 2 mps 744 mmHg 81%
22:00 +14°C° 0 mm 2 mps 744 mmHg 83%
23:00 +14°C° 0 mm 2 mps 744 mmHg 84%

29 September, Tuesday

Time Temperature Precipitation Wind Pressure Humidity
00:00 +14°C° 0 mm 1 mps 744 mmHg 84%
01:00 +14°C° 0 mm 1 mps 744 mmHg 85%
02:00 +14°C° 0 mm 1 mps 744 mmHg 85%
03:00 +13°C° 0 mm 1 mps 744 mmHg 86%
04:00 +13°C° 0 mm 1 mps 744 mmHg 88%
05:00 +13°C° 0 mm 1 mps 744 mmHg 89%
06:00 +13°C° 0 mm 1 mps 744 mmHg 88%
07:00 +14°C° 0 mm 1 mps 744 mmHg 88%
08:00 +14°C° 0 mm 1 mps 744 mmHg 87%
09:00 +14°C° 0.1 mm 1 mps 744 mmHg 86%
10:00 +13°C° 0.1 mm 0 mps 744 mmHg 86%
11:00 +14°C° 0.1 mm 0 mps 744 mmHg 85%
12:00 +14°C° 0 mm 0 mps 744 mmHg 84%
13:00 +15°C° 0 mm 1 mps 744 mmHg 83%
14:00 +16°C° 0 mm 1 mps 744 mmHg 82%
15:00 +16°C° 0 mm 1 mps 744 mmHg 83%
16:00 +16°C° 0 mm 1 mps 744 mmHg 83%
17:00 +16°C° 0 mm 1 mps 744 mmHg 84%
18:00 +15°C° 0 mm 1 mps 744 mmHg 87%
19:00 +14°C° 0 mm 1 mps 744 mmHg 91%
20:00 +13°C° 0 mm 1 mps 744 mmHg 95%
21:00 +13°C° 0 mm 1 mps 744 mmHg 95%
22:00 +13°C° 0 mm 1 mps 744 mmHg 95%
23:00 +13°C° 0 mm 1 mps 744 mmHg 96%

30 September, Wednesday

Time Temperature Precipitation Wind Pressure Humidity
00:00 +13°C° 0.2 mm 1 mps 744 mmHg 96%
01:00 +13°C° 0.2 mm 1 mps 743 mmHg 96%
02:00 +13°C° 0.2 mm 2 mps 743 mmHg 96%
03:00 +13°C° 0.1 mm 2 mps 743 mmHg 96%
04:00 +12°C° 0.1 mm 3 mps 743 mmHg 95%
05:00 +12°C° 0.1 mm 3 mps 742 mmHg 94%
06:00 +12°C° 0.8 mm 4 mps 742 mmHg 94%
07:00 +12°C° 0.8 mm 4 mps 742 mmHg 93%
08:00 +12°C° 0.8 mm 5 mps 741 mmHg 93%
09:00 +12°C° 0.9 mm 5 mps 741 mmHg 93%
10:00 +12°C° 0.9 mm 5 mps 741 mmHg 93%
11:00 +13°C° 0.9 mm 5 mps 741 mmHg 93%
12:00 +13°C° 0.8 mm 5 mps 741 mmHg 92%
13:00 +13°C° 0.8 mm 5 mps 740 mmHg 92%
14:00 +13°C° 0.8 mm 4 mps 740 mmHg 92%
15:00 +13°C° 1.1 mm 4 mps 740 mmHg 91%
16:00 +12°C° 1.1 mm 4 mps 740 mmHg 90%
17:00 +12°C° 1.1 mm 3 mps 739 mmHg 89%
18:00 +12°C° 0.4 mm 3 mps 739 mmHg 90%
19:00 +12°C° 0.4 mm 4 mps 739 mmHg 90%
20:00 +13°C° 0.4 mm 4 mps 739 mmHg 91%
21:00 +12°C° 0.6 mm 4 mps 739 mmHg 92%
22:00 +12°C° 0.6 mm 4 mps 739 mmHg 93%
23:00 +12°C° 0.6 mm 4 mps 739 mmHg 94%

1 October, Thursday

Time Temperature Precipitation Wind Pressure Humidity
00:00 +12°C° 0 mm 3 mps 739 mmHg 94%
01:00 +12°C° 0 mm 3 mps 739 mmHg 95%
02:00 +12°C° 0 mm 3 mps 739 mmHg 95%
03:00 +12°C° 0.2 mm 3 mps 738 mmHg 95%
04:00 +12°C° 0.2 mm 3 mps 738 mmHg 95%
05:00 +12°C° 0.2 mm 3 mps 738 mmHg 95%
06:00 +12°C° 0.2 mm 3 mps 738 mmHg 95%
07:00 +12°C° 0.2 mm 3 mps 738 mmHg 95%
08:00 +12°C° 0.2 mm 3 mps 738 mmHg 95%
09:00 +13°C° 0.1 mm 3 mps 738 mmHg 94%
10:00 +13°C° 0.1 mm 3 mps 738 mmHg 93%
11:00 +13°C° 0.1 mm 3 mps 738 mmHg 91%
12:00 +14°C° 0.2 mm 3 mps 738 mmHg 90%
13:00 +14°C° 0.2 mm 3 mps 738 mmHg 88%
14:00 +16°C° 0.2 mm 3 mps 738 mmHg 87%
15:00 +14°C° 0.5 mm 3 mps 737 mmHg 89%
16:00 +14°C° 0.5 mm 3 mps 737 mmHg 90%
17:00 +14°C° 0.5 mm 3 mps 737 mmHg 92%
18:00 +13°C° 0.5 mm 3 mps 737 mmHg 93%
19:00 +13°C° 0.5 mm 3 mps 737 mmHg 93%
20:00 +13°C° 0.5 mm 3 mps 737 mmHg 94%
21:00 +13°C° 0.1 mm 3 mps 737 mmHg 94%
22:00 +12°C° 0.1 mm 3 mps 737 mmHg 94%
23:00 +12°C° 0.1 mm 3 mps 737 mmHg 95%
Show more